sat.trackr.live / text

‹ back to catalog

GLOBALSTAR M075

NORAD 37192 · 2010-054E

PAYLOAD ACTIVE UNKNOWN

§ Identity

Operator
Country
GLOB
Launch date
2010-10-19
Launch site
TYMSC
Launch vehicle
Mass (kg)
RCS (m²)
4.74

Purposes: comms

External: N2YO · Heavens-Above · Gunter

§ Orbital elements

Epoch: 2026-09-09T09:26:30.287040Z

Period
114.08 min
Inclination
51.9930°
Eccentricity
0.0000390
Mean motion
12.62260535 rev/d
Perigee alt
1,413.3 km
Apogee alt
1,413.9 km
Semi-major
7,791.8 km
B*
4.9709e-5
RAAN
253.8053°
Arg perigee
78.0633°
Mean anomaly
67.3808°
Rev number
73,257

§ Raw data

GLOBALSTAR M0751 37192U 10054E   26252.39340610 -.00000095  00000+0  49709-4 0  99922 37192  51.9930 253.8053 0000390  78.0633  67.3808 12.62260535732574

JSON: /api/v1/satellites/37192 · /tle

For live sub-satellite position, see the globe view (requires WebGL).

§ Visibility from observer

Set your observer location to see the next 7 days of passes ≥ 10°. The values pass through the URL so the page stays shareable.

No JS? Fill the form by hand. The geolocation button needs JavaScript.